Other Public Products
Issued by NWS Grand Forks, ND

Home | Current Version | Previous Version | Graphics & Text | Print | Product List | Glossary On
Versions: 1 2 3 4 5 6 7 8 9 10 11 12 13 14 15 16 17 18 19 20 21 22 23 24 25 26 27 28 29 30 31 32 33 34 35 36 37 38 39 40 41 42 43 44 45 46 47 48 49 50
000
FPUS83 KFGF 241531
OPUFGF
PRAIRIE TO PINES WEATHER ROUNDUP
NATIONAL WEATHER SERVICE EASTERN NORTH DAKOTA/GRAND FORKS ND
900 AM CST WED DEC 24 2014

 **SATELLITE DATA USED TO AUGMENT SKY COVER AT AUTOMATED STATIONS**
 *****  WEATHER ACROSS EASTERN NORTH DAKOTA  *****

CITY           SKY/WX    TMP DP  RH WIND       PRES   REMARKS
GRAND FORKS    CLOUDY    25  23  92 W7        29.79F WCI  17
GRAND FORKS AF CLOUDY    25  25 100 SW7       29.79F WCI  17
GRAND CITY NWS   N/A     27 N/A N/A W3          N/A
BUXTON           N/A     27  26  95 SE3         N/A
DEVILS LAKE    CLOUDY    25  23  93 S10       29.71F WCI  15
FARGO          CLOUDY    29  25  85 W7        29.80F WCI  22
WAHPETON ARPT  CLOUDY    30  27  86 W8        29.82F WCI  23
$$

 *****  WEATHER ACROSS CENTRAL AND WESTERN NORTH DAKOTA  *****

CITY           SKY/WX    TMP DP  RH WIND       PRES   REMARKS
JAMESTOWN      CLOUDY    25  24  96 SW10      29.77F WCI  15
BISMARCK       CLOUDY    23  21  92 SE6       29.74F WCI  16
MINOT          CLOUDY    27  22  81 S8        29.62F WCI  19
MINOT AFB      CLOUDY    27  27  99 S12       29.61F WCI  16
GARRISON         N/A     24  22  91 S8        29.66F WCI  15
WILLISTON      CLOUDY    25  22  88 CALM      29.58F
DICKINSON      CLOUDY    26  18  71 S15       29.62F WCI  14
HETTINGER      CLOUDY    26  20  77 SW3       29.69F
$$

 *****  OTHER OBSERVATIONS NORTHEAST NORTH DAKOTA  *****

CITY           SKY/WX    TMP DP  RH WIND       PRES   REMARKS
WALHALLA         N/A     25  25 100 SW8       29.74F WCI  16
LANGDON        FOG       23  23 100 S13       29.68F VSB 1/2 WCI  11
CAVALIER       CLOUDY    25  23  93 SW9       29.75F WCI  15
GRAFTON        NOT AVBL
CANDO          CLOUDY    27  25  93 S9        29.70F FOG     WCI  17
FORT TOTTEN      N/A     25  25  99 S7        29.95S WCI  17
ROLLA          FOG       25  25 100 S16       29.65F VSB 1/2 WCI  12
RUGBY          CLOUDY    27  27 100 S9        29.67F FOG     WCI  17
 ***** THE ABOVE OBSERVATIONS ARE NON NWS ARE NOT QUALITY
        CONTROLLED AND MAY MIS-REPORT RAIN FOR SNOW...
$$

 *****  OTHER OBSERVATIONS SOUTHEAST NORTH DAKOTA *****

CITY           SKY/WX    TMP DP  RH WIND       PRES   REMARKS
COOPERSTOWN    NOT AVBL
VALLEY CITY    FOG       23  23 100 SW7       29.78F VSB 1   WCI  15
OAKES            N/A     23  23 100 SW7       29.81F FOG     WCI  15
GWINNER        CLOUDY    27  27 100 CALM      29.83F
BUFFALO        NOT AVBL
WYNDMERE         N/A     27  25  93 W6          N/A  WCI  20
 ***** THE ABOVE OBSERVATIONS ARE NON NWS ARE NOT QUALITY
       CONTROLLED AND MAY MIS-REPORT RAIN FOR SNOW...
$$

  *****  WEATHER ACROSS NORTHERN MINNESOTA  *****

CITY           SKY/WX    TMP DP  RH WIND       PRES   REMARKS
FLAG ISLAND    CLOUDY    30  28  93 CALM      29.73F
WARROAD        CLOUDY    30  27  86 CALM      29.75F
ROSEAU         CLOUDY    30  27  86 W5        29.75F
HALLOCK        CLOUDY    27  25  93 SW3       29.76F
THF RVR FALLS  CLOUDY    28  28 100 CALM      29.77F
HALSTAD          N/A     28  25  87 W5          N/A  WCI  23
FOSSTON        CLOUDY    27  27 100 CALM      29.77F FOG
BAUDETTE       CLOUDY    31  30  96 W3        29.74F FOG
WASKISH        FOG       32  32 100 CALM      29.75F VSB 1/4
CROOKSTON      CLOUDY    28  27  93 W6        29.79F WCI  22
$$
  *****  WEATHER ACROSS CENTRAL AND WEST MINNESOTA  *****

CITY           SKY/WX    TMP DP  RH WIND       PRES   REMARKS
BEMIDJI        CLOUDY    30  30 100 W5        29.75F FOG     WCI  25
PARK RAPIDS    CLOUDY    32  30  92 NW6       29.77F
WADENA         CLOUDY    28  28 100 NW5       29.78F FOG     WCI  23
DETROIT LAKES  FOG       30  30 100 W5        29.79F VSB 1/4
MOORHEAD       LGT RAIN  28  28 100 W6        29.81F WCI  22
FERGUS FALLS   CLOUDY    28  28 100 NW12      29.84F FOG     WCI  18
ELBOW LAKE     CLOUDY    28  28  99 NW13      29.81F FOG     WCI  18
MORRIS MN      CLOUDY    30  28  93 NW13      29.82S WCI  20
STAPLES        CLOUDY    30  30 100 NW6       29.78S WCI  24
WHEATON        CLOUDY    27  27 100 W9        29.86F WCI  17
$$
  *****  WEATHER ELSEWHERE ACROSS MINNESOTA  *****

CITY           SKY/WX    TMP DP  RH WIND       PRES   REMARKS
DULUTH         MOCLDY    32  28  85 N8        29.72F WCI  25
INTRNTL FALLS  FOG       32  32 100 CALM      29.73F VSB 1/4
ELY            CLOUDY    30  28  93 CALM      29.73F
CLOQUET        CLOUDY    34  30  86 NW9       29.73F
BRAINERD       CLOUDY    31  31 100 NW3       29.78S FOG
HIBBING        CLOUDY    33  30  88 N5        29.74F
ALEXANDRIA     CLOUDY    30  29  96 NW7       29.79F WCI  23
SAINT CLOUD    CLOUDY    35  30  82 NW6       29.77F
MINNEAPOLIS    CLOUDY    34  30  85 NW8       29.77S
$$

  *****  WEATHER ACROSS SOUTH DAKOTA  *****

CITY           SKY/WX    TMP DP  RH WIND       PRES   REMARKS
SIOUX FALLS    FRZ DRZL  28  26  92 NW12      29.86F WCI  18
BROOKINGS      NOT AVBL
WATERTOWN      FOG       24  23  96 NW8       29.82F VSB 1   WCI  15
HURON          CLOUDY    25  23  92 W6        29.86F FOG     WCI  18
SISSETON         N/A     26  24  92 NW9       29.84F WCI  17
ABERDEEN       CLOUDY    26  23  88 W6        29.85F FOG     WCI  19
MITCHELL       CLOUDY    26  24  92 W9        29.91F FOG     WCI  17
PIERRE         PTCLDY    12  10  92 SW7       29.83F WCI   1
MOBRIDGE       MOCLDY    17  14  88 S5        29.77F WCI  10
RAPID CITY     PTCLDY    13  10  88 CALM      29.75F
$$

  *****  SOME WEATHER IN NEARBY STATES *****

CITY           SKY/WX    TMP DP  RH WIND       PRES   REMARKS
GLASGOW MT     CLOUDY    32  27  81 SW7       29.58F
GREAT FALLS MT CLOUDY    42  29  59 NW7       29.58F
CHEYENNE WY    CLEAR     28  12  51 NW15G23   29.83F WCI  16
SCOTTSBLUFF NE CLEAR     10   6  84 CALM      29.85F
OMAHA NE       CLOUDY    33  30  88 NW17      29.87F WCI  22
DES MOINES IA  CLOUDY    35  31  85 N13G21    29.78R
DAVENPORT IA   CLOUDY    35  33  92 NW12      29.67S FOG
CHICAGO IL     CLOUDY    38  34  85 NW5       29.61F
EAU CLAIRE WI  CLOUDY    34  30  85 N5        29.71S
LA CROSSE WI   CLOUDY    35  32  88 NW7       29.69F
$$

  *****  SOME NATIONAL WEATHER *****

CITY           SKY/WX    TMP DP  RH WIND       PRES   REMARKS
LA GUARDIA NY  LGT RAIN  43  42  97 NE10      29.96F VSB 1/8
RALEIGH NC     LGT RAIN  50  48  93 VRB3      29.82F FOG
ATLANTA GA     FOG       52  51  97 E9        29.67F VSB 1/4
NEW ORLEANS LA MOSUNNY   52  42  69 NW15G22   29.91R
OKLAHOMA CITY  CLOUDY    37  27  67 NW14      30.00R
ALBUQUERQUE NM CLEAR     21  12  68 CALM      30.19S
SALT LAKE CITY MOCLDY    29  19  66 SE14      30.07F WCI  18
LOS ANGELES CA PTCLDY    61  37  41 VRB5      30.07F
BOISE ID       PTCLDY    33  26  75 N3        29.87F
SEATTLE WA     CLOUDY    39  37  93 S5        29.91F
$$

*** WEATHER ACROSS MANITOBA...SASKATCHEWAN AND ONTARIO ***
                ***ONTARIO***

CITY           SKY/WX    TMP DP  RH WIND       PRES   REMARKS
GERALDTON      FLURRIES N/A N/A N/A NE7         N/A
THUNDER BAY    CLOUDY    32  32 100 W2        29.73F
SIOUX LOOKOUT  FLURRIES  28  28 100 VRB2      29.74F
TORONTO        DRIZZLE   46  45  93 E3        29.65  FOG
BIG TROUT LK   FLURRIES  19  19 100 SE6       29.82F WCI  11
PICKLE LAKE    FLURRIES  23  21  93 E2        29.77F
DRYDEN         CLOUDY    28  28 100 NE2       29.74F
KENORA         LGT SNOW  30  30 100 S2        29.73  FOG
$$
                *** MANITOBA***

CITY           SKY/WX    TMP DP  RH WIND       PRES   REMARKS
BRANDON        CLOUDY    23  23 100 S8        29.64F FOG     WCI  14
DAUPHIN        NOT AVBL
ISLAND LAKE    FLURRIES  21  21 100 SE7       29.74F WCI  13
PILOT MOUND      N/A     23  21  93 S8          N/A  WCI  14
THE PAS        CLOUDY    21  19  93 SE8       29.59F FOG     WCI  12
THOMPSON       LGT SNOW  18  16  93 VRB2      29.70  FOG
WINNIPEG       CLOUDY    27  23  86 S9        29.74F WCI  17
LYNN LAKE      FLURRIES  19  19 100 SE7       29.58F WCI  10
CHURCHILL      FLURRIES  16  14  93 S12       29.80  WCI   3
GILLAM         FLURRIES  18  16  93 SE6       29.76F WCI   9
$$
                ***SASKATCHEWAN***

CITY           SKY/WX    TMP DP  RH WIND       PRES   REMARKS
ESTEVAN        FLURRIES  28  23  80 S15G22    29.54F WCI  17
KINDERSLEY     MOCLDY    21  19  93 W7        29.54  WCI  13
LLOYDMINSTER   MOCLDY    23  21  93 W10       29.48F WCI  12
PRINCE ALBERT  LGT SNOW  23  23 100 E3        29.46  FOG
REGINA         MOCLDY    27  25  93 W10       29.48  WCI  17
YORKTON        CLOUDY    27  25  93 S14       29.47F WCI  15


USA.gov is the U.S. government's official web portal to all federal, state and local government web resources and services.